FENGYUN 1C DEB, 29851

Orbit data source: Space-Track

FENGYUN 1C DEB, 29851 is space debris in SSO originally from a launch on Mon, 10 May 1999 UTC launched from the Taiyaun Space Center, China (TSC). Fengyun 1C debris stems from the Chinese weather satellite Fengyun-1C, which was intentionally destroyed by a Chinese anti-satellite missile in 2007. This event dramatically increased the amount of space debris, with thousands of trackable fragments posing hazards to satellites and human spaceflight. The Fengyun 1C debris cloud has become a focal point in discussions about space sustainability and the need for international regulations to prevent the creation of new debris.

Loading next visibility...
Identifier
29851, 1999-025EV
Orbit
SSO
Country
Flag of CNCN / PRC
Related business
Manufacturer
Unknown
Mission
Spacecraft
Bus & Motor
Unknown
Mass
Unknown
Launch date (UTC)
1999-05-10 (27 years ago)
Launch vehicle
Unknown
Launch site
Taiyaun Space Center, China (TSC)
Object type
Payload
Rocket body
Debris
Shape & HBR
Unknown shape, 0.1 m
Radar Cross Section
Small (<0.1 m²)

Expand to show TLE details & history
Last TLE update: 17 hours ago

TLE from 17 hours ago
0 FENGYUN 1C DEB
1 29851U 99025EV  26122.39816155  .00000349  00000-0  33118-3 0  9996
2 29851  99.5596 170.8590 0141817 216.0108 212.4054 13.83715681973123
Epoch: 2026-05-02T09:33Z
TLE epoch observation values (Epoch: 2026-05-02T09:33:21.157Z)
Latitude
65.78943°
Longitude
145.32663°
Altitude
1,050.215 km
Speed
7.289 km/s
True Right ascension
09h 55m 55s
True Declination
65° 39' 56"
Sunlit
Object was in daylight at epoch
Visualization orbit readout
Latitude
Unknown
Longitude
Unknown
Altitude
Unknown
Speed
Unknown
Apparent Right ascension
Unknown
Apparent Declination
Unknown
Sunlit
N/A
Visualization observer readout
Local Sidereal Time
10:39:43
Azimuth
Unknown
Elevation
Unknown
Doppler factor
Unknown
Orbital elements
Apogee altitude
1,051.882 km
Perigee altitude
844.089 km
Semi-major axis
7,326.123 km
Eccentricity
0.01418
Inclination
99.5596°
RAAN
170.859°
Arg. of periapsis
216.0108°
True anomaly
211.54738°
Mean anomaly
212.4054°
Eccentric anomaly
211.97511°
Mean motion
3.46124 °/min
Orbital period
104.01 mins
BSTAR
0.00033118
Loading maneuver chart data...
Computing Atmospheric mass density...

Documentation

Showing up to 5 results
|